{"data":{"norad_id":59399,"epoch":"2026-05-24T20:58:34.140000Z","epoch_age_seconds":86178,"freshness":"FRESH","line1":"1 59399U 24064B   26144.87400625  .00002313  00000+0  93557-4 0  9991","line2":"2 59399  43.0038 346.2321 0000999 274.9499  85.1238 15.27570256120872","mean_motion":15.27570256,"eccentricity":9.99e-5,"inclination_deg":43.0038,"raan_deg":346.2321,"arg_perigee_deg":274.9499,"mean_anomaly_deg":85.1238,"bstar":9.3557e-5,"rev_number":12087,"period_min":94.267350018368,"perigee_km":482.39283783034,"apogee_km":483.76370864193,"semimajor_km":6861.2152732361,"source":"CELESTRAK","updated_at":"2026-05-25T13:38:18.938853Z"}}